FORTE

Satellite information

Favourite Embed

Satellite Type and Status

PAYLOADIN ORBIT

Key statistics

Satellite FORTE at a glance.

Uptime

10173

Days in orbit

Revolutions

≈ 14.3

Per day

Orbit

LEO

Low Earth Orbit

Inclination

70.0

Latest

Satellite identification and parameters

Extended collection of information and parameters for FORTE.

Object identification

Identified? True

Debris? False

Object name: FORTE

International designator: 1997-047A

Object number (NORAD): 24920

Object ID (CCSDS): 24920

Country: UNITED STATES OF AMERICA (US)

Current information (Y/N): Y

RCS size: LARGE

Orbital parameters

Period: 100.86 minutes

Inclination: 69.9538 deg

SMA: 7177.484 km

Apoapsis: 814.358 km

Periapsis: 784.341 km

RAAN: 77.1913 deg

Eccentricy: 0.002091

Argument of periapsis: 24.7792 deg

Mean anomaly: 335.4329 deg

Mean motion: 14.2772437 rev/day

Mean motion (dot): 0.00000165 rev/day2

B* drag term: 0.00009005 1/REarth

Two-line elements (TLE)

Creation date: July 5, 2025, 5:45 p.m.

Reference frame: TEME

Reference center: EARTH

Epoch: July 5, 2025, 9:29 a.m. UTC

TLE line 0: 0 FORTE

TLE line 1: 1 24920U 97047A 25186.39546786 .00000165 00000-0 90050-4 0 9994

TLE line 2: 2 24920 69.9538 77.1913 0020910 24.7792 335.4329 14.27724370449182

Live tracking on map

Real-time ground track for satellite FORTE.

In-orbit conjunctions

There are no conjunctions computed for FORTE, at the moment. Check back to stay up to date, as we update our databases every day.

Go to all conjunctions

Associated space launch

FORTE was lifted into orbit during the mission ‘Pegasus XL | Fast On-orbit Rapid Recording of Transient Events (FORTE)’, on board a Pegasus XL space rocket.

The launch took place on Aug. 29, 1997, 3:02 p.m. from Space Launch Complex 10E.

For more information about the launch, click the button.

Launch to space Pegasus XL | Fast On-orbit Rapid Recording of Transient Events (FORTE)
Pegasus XL | Fast On-orbit Rapid Recording of Transient Events (FORTE)

Agency: N/A

Status: Launch Successful

Launch date: Aug. 29, 1997, 3:02 p.m. UTC

Rocket: Pegasus XL

Launch pad: Space Launch Complex 10E

Location: Vandenberg SFB, CA, USA

...

Latest news about this satellite

There are no fresh news available about this satellite. Check back as we update our databases every day.


Newsletter sign-up

Weekly statistics, charts and insights to help you stay on top of the space industry.